This is the latest recevied weather packets stored in our database for station/object KC4JES. If no packets are shown the sender has not sent any weather packets the latest 10 day(s).
| Time | Temp. | Humidity | Pressure | Rain* | Wind** | Luminosity | Snow |
|---|---|---|---|---|---|---|---|
| 1778112327 | 25.56° C | 71% | 1015.5 hPa | 0 mm | - | 2 W/m² | - |
| 1778112022 | 25.56° C | 71% | 1015.4 hPa | 0 mm | - | 3 W/m² | - |
| 1778111720 | 25.56° C | 71% | 1015.3 hPa | 0 mm | - | 4 W/m² | - |
| 1778111415 | 25.56° C | 70% | 1015.4 hPa | 0 mm | - | 5 W/m² | - |
| 1778111113 | 26.11° C | 69% | 1015.1 hPa | 0 mm | - | 8 W/m² | - |
| 1778110810 | 26.11° C | 69% | 1015.2 hPa | 0 mm | - | 12 W/m² | - |
| 1778110507 | 26.11° C | 68% | 1015.1 hPa | 0 mm | - | 15 W/m² | - |
| 1778110203 | 26.11° C | 67% | 1015.3 hPa | 0 mm | - | 21 W/m² | - |
| 1778109900 | 26.67° C | 67% | 1015.1 hPa | 0 mm | - | 26 W/m² | - |
| 1778109595 | 26.67° C | 66% | 1015.1 hPa | 0 mm | - | 31 W/m² | - |
| 1778109293 | 26.67° C | 64% | 1015.1 hPa | 0 mm | - | 35 W/m² | - |
| 1778108990 | 26.67° C | 63% | 1015.3 hPa | 0 mm | - | 42 W/m² | - |
| 1778108686 | 26.67° C | 62% | 1015.2 hPa | 0 mm | - | 49 W/m² | - |
| 1778108383 | 26.67° C | 61% | 1015.5 hPa | 0 mm | - | 51 W/m² | - |
| 1778108081 | 26.67° C | 65% | 1015.5 hPa | 0 mm | - | 52 W/m² | - |
| 1778107777 | 27.22° C | 64% | 1015.6 hPa | 0 mm | - | 46 W/m² | - |
| 1778107474 | 27.22° C | 66% | 1015.6 hPa | 0 mm | - | 50 W/m² | - |
| 1778107171 | 27.22° C | 65% | 1015.3 hPa | 0 mm | - | 60 W/m² | - |
| 1778106866 | 27.22° C | 66% | 1015.3 hPa | 0 mm | - | 66 W/m² | - |
| 1778106564 | 27.78° C | 67% | 1015.2 hPa | 0 mm | - | 65 W/m² | - |
| 1778106260 | 27.78° C | 67% | 1015.2 hPa | 0 mm | - | 76 W/m² | - |
| 1778105957 | 27.78° C | 66% | 1015.4 hPa | 0 mm | - | 73 W/m² | - |
| 1778105654 | 27.78° C | 64% | 1015.2 hPa | 0 mm | - | 67 W/m² | - |
| 1778105352 | 27.78° C | 62% | 1015.4 hPa | 0 mm | - | 53 W/m² | - |
| 1778105047 | 27.78° C | 61% | 1015.5 hPa | 0 mm | - | 61 W/m² | - |
* Rain latest hour (hover to see other rain measurements)
** Current wind speed in m/s (hover to see current wind gust speed)